Regional Weather Roundup
Issued by NWS

Home | Current Version | Previous Version | Text Only | Print | Product List | Glossary On
Versions: 1 2 3 4 5 6 7 8 9 10 11 12 13 14 15 16 17 18 19 20 21 22 23 24 25 26 27 28 29 30 31 32 33 34 35 36 37 38 39 40 41 42 43 44 45 46 47 48 49 50
000
ASUS45 KSLC 251010
RWRUT

UTAH REGIONAL WEATHER ROUNDUP
NATIONAL WEATHER SERVICE SALT LAKE CITY UT
400 AM MDT TUE APR 25 2017

UTZ001>011-023>025-251100-

NORTHERN UTAH

CITY           SKY/WX    TMP DP  RH WIND       PRES   REMARKS
BRIGHAM CITY   CLOUDY    43  40  87 CALM      29.74F
HILL AFB       MIX PCPN  41  37  87 S8        29.73F
LOGAN          CLOUDY    43  39  86 S5        29.73S
OGDEN          LGT RAIN  42  38  85 SW9       29.73F
SALT LAKE CITY LGT RAIN  42  40  92 SW7       29.74S
TOOELE VALLEY  DRIZZLE   39  37  93 W3        29.76S
WENDOVER       CLOUDY    44  34  67 W12       29.78
HEBER CITY     MIX PCPN  34  32  93 CALM      29.73F
WEST JORDAN    CLOUDY    42  42 100 W3        29.75F

$$

UTZ011>015-024>027-251100-

CENTRAL/NORTHEAST UTAH

CITY           SKY/WX    TMP DP  RH WIND       PRES   REMARKS
PROVO AIRPORT  MOCLDY    39  37  92 E3        29.76S
MOAB/CANYONLAN CLOUDY    49  29  46 NW7       29.65F
DELTA          CLOUDY    43  32  65 N6        29.78S
PRICE          PTCLDY    35  26  69 NE8       29.70F WCI  29
RICHFIELD      CLOUDY    45  30  57 N8        29.78S
ROOSEVELT      PTCLDY    39  32  75 SW7       29.69S WCI  34
VERNAL         CLEAR     33  27  78 NW5       29.68S WCI  29

$$

UTZ013>016-019>022-027-251100-

SOUTHERN UTAH

CITY           SKY/WX    TMP DP  RH WIND       PRES   REMARKS
BRYCE CANYON   CLOUDY    36  28  73 NW10      29.76F WCI  28
CEDAR CITY     CLOUDY    38  31  76 NW6       29.76S WCI  33
MILFORD        CLOUDY    43  35  73 N8        29.75F
ST GEORGE      PTSUNNY   65  27  23 W21       29.66R
HANKSVILLE     MOCLDY    50  28  43 NW12      29.71S
KANAB          MOCLDY    57  23  26 NW13      29.74R
BLANDING       CLOUDY    48  27  44 NW7       29.74F

$$

REGIONAL REPORTS     COLORADO/ARIZONA

CITY           SKY/WX    TMP DP  RH WIND       PRES   REMARKS
CRAIG, CO      CLOUDY    33  30  88 SE3       29.73R
GRAND JUNCTION CLOUDY    44  38  79 SE14      29.67F
RIFLE, CO      MOCLDY    39  36  89 CALM      29.73S
MONTROSE, CO   LGT RAIN  42  36  79 SE14      29.75F
CORTEZ, CO     CLOUDY    48  31  51 NW8       29.67F
COLORADO CITY    N/A     57  27  30 NW3       29.72F
PAGE, AZ       CLOUDY    61  27  27 NW8       29.64R
GRAND CANYON   LGT RAIN  49  30  48 VRB5      29.77R
KINGMAN, AZ    MOCLDY    56  32  40 SW8       29.68S
FLAGSTAFF, AZ  MOCLDY    48  26  42 SW14G20   29.75F

$$

REGIONAL REPORTS    NEVADA/IDAHO/WYOMING

CITY           SKY/WX    TMP DP  RH WIND       PRES   REMARKS
LAS VEGAS, NV  MOCLDY    70  14  11 N22G37    29.65R
ELY, NY        PTCLDY    33  27  78 W5        29.83F WCI  29
ELKO, NV       CLOUDY    37  32  82 W5        29.85F WCI  33
POCATELLO, ID  CLOUDY    40  36  86 SW21      29.74R WCI  30
BURLEY, ID     CLOUDY    39  34  82 W17       29.74S WCI  30
FORT BRIDGER,    N/A     32  32 100 W10       29.72S WCI  24
EVANSTON, WY   LGT SNOW  31  31 100 W13       29.71F FOG     WCI  21
ROCK SPRINGS,  CLEAR     34  27  75 W16       29.67F WCI  24
KEMMERER, WY     N/A     32  30  93 W14       29.69F WCI  22

$$



USA.gov is the U.S. government's official web portal to all federal, state and local government web resources and services.